Location: Bonn
(50.7330°N, 7.1000°E)
Time: 19:18:15
(UTC+02:00)

ISS - Visible Passes

Search period start: 24 July 2021 00:00
Search period end: 03 August 2021 00:00
Orbit: 419 x 421 km, 51.6° (Epoch: 24 July)

Date Brightness Start Highest point End Pass type
(mag) Time Alt. Az. Time Alt. Az. Time Alt. Az.
24 Jul -2.4 00:42:29 10° W 00:44:40 27° WSW 00:44:40 27° WSW visible
24 Jul -3.6 22:18:11 10° W 22:21:36 78° N 22:24:58 10° E visible
24 Jul -3.3 23:55:05 10° W 23:58:20 44° SSW 23:58:48 40° S visible
25 Jul -3.6 23:07:44 10° WNW 23:11:04 59° SSW 23:12:58 23° SE visible
26 Jul -1.2 00:45:17 10° W 00:45:54 12° WSW 00:45:54 12° WSW visible
26 Jul -3.8 22:20:24 10° WNW 22:23:46 76° SSW 22:27:09 10° ESE visible
26 Jul -2.2 23:57:33 10° W 00:00:06 22° SW 00:00:06 22° SW visible
27 Jul -2.7 23:10:01 10° W 23:13:03 31° SSW 23:14:20 23° S visible
28 Jul -3.1 22:22:34 10° W 22:25:49 43° SSW 22:28:35 13° SE visible
29 Jul -1.1 00:01:30 10° SW 00:01:33 10° SW 00:01:33 10° SW visible
29 Jul -1.6 23:12:47 10° WSW 23:14:50 15° SW 23:15:51 14° SSW visible
30 Jul -2.0 22:25:00 10° W 22:27:40 22° SW 22:30:11 11° SSE visible
01 Aug -1.0 22:29:05 10° SW 22:29:20 10° SW 22:29:33 10° SW visible
